[[{"header":{"parameterUnit":"m.s-1","parameterCategory":1,"la1":30.2991,"la2":30.254,"lo1":-89.0895,"lo2":-89.0444,"dy":0.0017,"dx":0.0017,"nx":28,"ny":28,"refTime":"2025-03-10T21:00:00:Z","depth":0,"parameterNumber":2,"parameterNumberName":"U-component_of_WINDS"},"data":[0,0,0,0,0,0,0,0,0,0,0,0,0,0,0,0,0,0,0,0,0,0,0,0,0,0,0,0,0,0,0,0,0,0,0,0,0,0,0,0,0,0,0,0,0,0,0,0,0,0,0,0,0,0,0,0,0,0,0.7661,0.7661,0,0.7666,0.7666,0.7666,0.7656,0.7656,0.7655,0.7655,0.766,0.766,0.7661,0,0,0,0,0,0,0,0,0,0,0,0,0,0.7645,0.7645,0.7661,0.7661,0.7661,0.7666,0.7666,0.7666,0.7656,0.7656,0.7655,0.7655,0.766,0.766,0.7661,0,0,0,0,0,0,0,0,0,0,0,0,0,0.7651,0.7645,0.7661,0.7657,0.7657,0.7666,0.7666,0.7666,0.7656,0.7656,0.7655,0.7655,0.766,0.766,0.7661,0.7674,0,0,0.7663,0.7663,0,0,0,0,0,0,0,0,0.765,0.7651,0.7658,0.7657,0.7657,0.766,0.7662,0.7669,0.7656,0.7656,0.7655,0.7655,0.766,0.7661,0.7663,0.7675,0.7675,0.7663,0.7663,0.7664,0.7664,0,0,0,0,0,0,0,0.765,0.7651,0.7663,0.7658,0.7657,0.7655,0.7655,0.7663,0.7661,0.7656,0.7656,0.7656,0.766,0.7662,0.7663,0.7675,0.7663,0.7664,0.7664,0.7664,0.7698,0.7699,0,0,0,0,0,0,0.765,0.7651,0.7663,0.7663,0.7652,0.7656,0.7656,0.7659,0.7661,0.7661,0.7657,0.7656,0.7661,0.7662,0.7663,0.7679,0.7664,0.7664,0.7665,0.7698,0.7698,0.7699,0,0,0,0,0,0,0.765,0.7651,0.7663,0.7657,0.7658,0.7657,0.766,0.766,0.7662,0.7661,0.7661,0.7659,0.7661,0.7662,0.7672,0.7679,0.7665,0.7665,0.7697,0.7698,0.7699,0.7711,0,0,0,0,0,0,0.7649,0.7651,0.7656,0.7657,0.7658,0.7671,0.7661,0.766,0.7663,0.7662,0.7663,0.7663,0.7661,0.7671,0.7672,0.768,0.7666,0.7696,0.7697,0.7698,0.771,0.7712,0.7714,0,0,0,0,0,0.7649,0.7659,0.7656,0.7658,0.7665,0.7672,0.7673,0.7669,0.7664,0.7669,0.7668,0.7663,0.7678,0.7672,0.7673,0.7681,0.7696,0.7697,0.7698,0.7709,0.7712,0.7714,0,0,0,0,0,0,0.7659,0.7659,0.7656,0.7667,0.767,0.767,0.7676,0.7672,0.7676,0.7675,0.7671,0.7671,0.7682,0.7682,0.7676,0.7694,0.7686,0.7688,0.7693,0.7696,0.7698,0.7698,0.7666,0,0,0,0,0,0.7663,0.7669,0.7668,0.7678,0.768,0.7678,0.7681,0.7678,0.768,0.7681,0.7682,0.7684,0.7689,0.7693,0.7697,0.771,0.771,0.7716,0.7718,0.772,0.7721,0.7728,0.773,0.7703,0.7703,0.7703,0,0,0.7671,0.7671,0.7675,0.7681,0.7682,0.7688,0.7679,0.7685,0.769,0.7682,0.7691,0.7692,0.7694,0.7705,0.771,0.7706,0.7729,0.7721,0.7722,0.7723,0.7729,0.7732,0.7734,0.7704,0.7703,0.7703,0,0,0.7688,0.7689,0.7697,0.7699,0.7701,0.77,0.7702,0.7703,0.7703,0.7712,0.7707,0.7712,0.7721,0.7723,0.7725,0.7743,0.7739,0.7745,0.7755,0.7762,0.7764,0.7766,0.7773,0.7775,0.7746,0.7746,0.7746,0,0.7697,0.7706,0.7702,0.7709,0.7712,0.7705,0.7714,0.7716,0.772,0.7722,0.7717,0.7728,0.7729,0.7741,0.7745,0.7747,0.775,0.7745,0.7764,0.7766,0.7768,0.7774,0.7776,0.7747,0.7747,0.7747,0.7747,0,0.7717,0.7723,0.773,0.7734,0.7737,0.7745,0.7743,0.7747,0.7744,0.7743,0.7753,0.7754,0.7759,0.7761,0.7759,0.7773,0.777,0.7765,0.7756,0.7771,0.7777,0.7779,0.7748,0.7748,0.7748,0.7747,0,0,0.7741,0.7743,0.7745,0.7747,0.7749,0.7754,0.7762,0.7766,0.777,0.7773,0.7779,0.7787,0.7782,0.7785,0.7782,0.7788,0.7803,0.7782,0.7782,0.7786,0.7818,0.7822,0.7825,0.78,0.78,0.78,0.7818,0,0.7758,0.7771,0.7768,0.7781,0.7787,0.7781,0.7788,0.779,0.7789,0.7794,0.7794,0.78,0.7793,0.7794,0.78,0.78,0.7809,0.7798,0.7806,0.7806,0.7805,0.7828,0.7832,0.7848,0.782,0.7821,0.7821,0,0.7779,0.7783,0.7797,0.7798,0.78,0.7806,0.7811,0.7815,0.7818,0.7817,0.782,0.7816,0.7824,0.7816,0.7827,0.7819,0.7822,0.7823,0.7823,0.7824,0.7814,0.7829,0.7853,0.7856,0.7824,0.7824,0.7824,0,0.7796,0.7804,0.7813,0.7815,0.7817,0.7821,0.7822,0.7824,0.7827,0.7831,0.7833,0.7837,0.784,0.7844,0.7841,0.7836,0.7853,0.7844,0.7852,0.7852,0.7856,0.7856,0.7881,0.7858,0.7858,0.7858,0.7858,0,0.7815,0.7823,0.782,0.7826,0.7836,0.7832,0.7842,0.7842,0.7844,0.785,0.7845,0.785,0.7847,0.7852,0.7851,0.786,0.7861,0.7861,0.786,0.7861,0.7861,0.7863,0.7862,0.7859,0.7858,0.7858,0.7858,0,0.7834,0.7833,0.7842,0.7843,0.7844,0.7851,0.7852,0.7857,0.7856,0.7864,0.7865,0.7864,0.787,0.7868,0.7875,0.7874,0.7885,0.7883,0.7884,0.7884,0.7892,0.7891,0.792,0.7923,0.7898,0.7898,0.7898,0,0.7847,0.7853,0.7855,0.7858,0.786,0.7865,0.7868,0.7866,0.7869,0.7872,0.7877,0.7883,0.7887,0.7897,0.7897,0.7902,0.79,0.7909,0.79,0.7901,0.79,0.7899,0.79,0.7911,0.7911,0.7912,0.7912,0,0.7869,0.7868,0.7873,0.7877,0.7881,0.7884,0.7887,0.7891,0.7888,0.7892,0.7898,0.7901,0.7908,0.7914,0.7918,0.7919,0.7915,0.7915,0.7917,0.7918,0.7918,0.7918,0.7889,0.7914,0.7914,0.7914,0.7913,0.7913,0.7885,0.7891,0.7893,0.7898,0.79,0.7903,0.7908,0.7908,0.7913,0.7918,0.7916,0.7923,0.7926,0.7931,0.7933,0.7938,0.7935,0.7938,0.7938,0.7939,0.794,0.7917,0.7939,0.7939,0.7939,0.7939,0.7939,0,0.7907,0.7908,0.7914,0.7918,0.7922,0.7918,0.7921,0.7925,0.7931,0.7933,0.7938,0.7945,0.795,0.795,0.7955,0.796,0.7958,0.7961,0.7961,0.7961,0.7943,0.7941,0.7962,0.7962,0.7962,0.7962,0.7962,0.7962,0.7919,0.7928,0.7928,0.7938,0.7939,0.7945,0.7947,0.795,0.7952,0.796,0.7964,0.7965,0.7966,0.7971,0.7976,0.7976,0.7978,0.7982,0.7981,0.7965,0.7962,0.796,0.7958,0.7982,0.7982,0.7998,0.7999,0.7999]},{"header":{"parameterUnit":"m.s-1","parameterCategory":1,"la1":30.2991,"la2":30.254,"lo1":-89.0895,"lo2":-89.0444,"dy":0.0017,"dx":0.0017,"nx":28,"ny":28,"refTime":"2025-03-10T21:00:00:Z","depth":0,"parameterNumber":3,"parameterNumberName":"V-component_of_WINDS"},"data":[0,0,0,0,0,0,0,0,0,0,0,0,0,0,0,0,0,0,0,0,0,0,0,0,0,0,0,0,0,0,0,0,0,0,0,0,0,0,0,0,0,0,0,0,0,0,0,0,0,0,0,0,0,0,0,0,0,0,-0.2242,-0.2243,0,-0.2289,-0.229,-0.229,-0.2296,-0.2296,-0.2295,-0.2295,-0.2344,-0.2346,-0.2348,0,0,0,0,0,0,0,0,0,0,0,0,0,-0.2159,-0.2161,-0.2242,-0.2243,-0.2243,-0.2289,-0.229,-0.229,-0.2296,-0.2296,-0.2295,-0.2295,-0.2344,-0.2346,-0.2348,0,0,0,0,0,0,0,0,0,0,0,0,0,-0.22,-0.2161,-0.2242,-0.2252,-0.2253,-0.2289,-0.229,-0.2291,-0.2296,-0.2296,-0.2295,-0.2294,-0.2343,-0.2346,-0.2348,-0.2378,0,0,-0.2356,-0.2357,0,0,0,0,0,0,0,0,-0.2197,-0.2203,-0.225,-0.2251,-0.2253,-0.2286,-0.2279,-0.232,-0.2297,-0.228,-0.2295,-0.2294,-0.2326,-0.233,-0.234,-0.238,-0.2382,-0.2356,-0.2358,-0.2359,-0.236,0,0,0,0,0,0,0,-0.2195,-0.2201,-0.2261,-0.2251,-0.2252,-0.2254,-0.2259,-0.2286,-0.2306,-0.2281,-0.2282,-0.2287,-0.2326,-0.2337,-0.2341,-0.2383,-0.2356,-0.2359,-0.236,-0.2361,-0.2451,-0.2452,0,0,0,0,0,0,-0.219,-0.2198,-0.2259,-0.2262,-0.2223,-0.2256,-0.2262,-0.2276,-0.2306,-0.231,-0.2288,-0.2287,-0.2333,-0.2338,-0.2343,-0.238,-0.2359,-0.2361,-0.2363,-0.245,-0.2451,-0.2452,0,0,0,0,0,0,-0.2188,-0.2195,-0.2258,-0.2231,-0.2239,-0.2259,-0.2274,-0.2277,-0.2289,-0.2311,-0.2314,-0.2296,-0.2333,-0.2339,-0.2369,-0.2382,-0.2363,-0.2365,-0.2449,-0.245,-0.2451,-0.2455,0,0,0,0,0,0,-0.2186,-0.2195,-0.2206,-0.2231,-0.224,-0.2283,-0.2275,-0.2279,-0.2293,-0.2293,-0.2319,-0.2323,-0.2333,-0.2365,-0.2372,-0.2385,-0.2367,-0.2448,-0.245,-0.2451,-0.2454,-0.2456,-0.2458,0,0,0,0,0,-0.2183,-0.2205,-0.2206,-0.2214,-0.2254,-0.2283,-0.2289,-0.23,-0.2294,-0.2306,-0.232,-0.2322,-0.2379,-0.2368,-0.2376,-0.239,-0.2447,-0.2449,-0.2451,-0.2453,-0.2455,-0.2458,0,0,0,0,0,0,-0.2181,-0.2208,-0.221,-0.2241,-0.226,-0.2284,-0.2299,-0.2302,-0.2323,-0.2323,-0.2336,-0.2342,-0.2371,-0.2384,-0.2371,-0.2421,-0.2413,-0.2416,-0.2412,-0.2414,-0.2417,-0.2413,-0.2369,0,0,0,0,0,-0.2185,-0.2205,-0.2228,-0.2253,-0.2263,-0.2279,-0.2292,-0.2299,-0.2319,-0.2327,-0.2344,-0.2364,-0.2386,-0.2401,-0.2423,-0.2455,-0.2461,-0.2469,-0.2471,-0.2473,-0.2476,-0.2494,-0.2498,-0.2458,-0.2458,-0.2458,0,0,-0.2192,-0.2209,-0.2221,-0.2253,-0.2269,-0.2291,-0.2286,-0.2309,-0.2326,-0.2331,-0.236,-0.2373,-0.2396,-0.2428,-0.2442,-0.2439,-0.2488,-0.2475,-0.2476,-0.2478,-0.2496,-0.25,-0.2503,-0.2459,-0.2459,-0.2459,0,0,-0.2216,-0.2231,-0.2254,-0.2269,-0.2292,-0.2303,-0.2309,-0.2333,-0.2341,-0.2371,-0.2375,-0.2395,-0.2434,-0.245,-0.2464,-0.2494,-0.2497,-0.2501,-0.2512,-0.253,-0.2533,-0.2536,-0.2548,-0.2552,-0.2504,-0.2504,-0.2504,0,-0.2222,-0.2254,-0.2265,-0.2288,-0.2302,-0.2308,-0.2331,-0.2346,-0.2375,-0.2385,-0.2381,-0.2429,-0.2445,-0.2481,-0.2488,-0.2499,-0.2506,-0.2498,-0.2532,-0.2535,-0.2538,-0.2549,-0.2553,-0.2504,-0.2504,-0.2504,-0.2504,0,-0.2261,-0.2284,-0.2299,-0.2327,-0.2343,-0.2366,-0.2381,-0.2396,-0.2401,-0.2413,-0.2443,-0.2462,-0.2488,-0.2497,-0.2503,-0.2534,-0.2531,-0.2529,-0.2522,-0.2542,-0.2553,-0.2557,-0.2505,-0.2504,-0.2504,-0.2504,0,0,-0.2286,-0.2319,-0.2325,-0.2338,-0.2364,-0.2381,-0.2405,-0.243,-0.2443,-0.2463,-0.2484,-0.2516,-0.2515,-0.253,-0.2537,-0.2553,-0.2577,-0.255,-0.255,-0.2554,-0.2613,-0.2614,-0.2619,-0.2578,-0.2579,-0.258,-0.2611,0,-0.2314,-0.2355,-0.2366,-0.2402,-0.2423,-0.2428,-0.2449,-0.2467,-0.2479,-0.2499,-0.2512,-0.2535,-0.2531,-0.254,-0.2556,-0.257,-0.2589,-0.2568,-0.2598,-0.2599,-0.2593,-0.2624,-0.2626,-0.2654,-0.2615,-0.2616,-0.2616,0,-0.2351,-0.2372,-0.241,-0.2433,-0.2442,-0.2461,-0.2485,-0.2504,-0.2525,-0.2532,-0.2549,-0.2555,-0.2581,-0.2571,-0.2607,-0.2593,-0.2606,-0.2615,-0.2616,-0.262,-0.2609,-0.2629,-0.2664,-0.2668,-0.2623,-0.2622,-0.2622,0,-0.2366,-0.2403,-0.2431,-0.2442,-0.247,-0.2482,-0.2495,-0.2515,-0.253,-0.2551,-0.2561,-0.2585,-0.2598,-0.2617,-0.2629,-0.2621,-0.2664,-0.2656,-0.2672,-0.2671,-0.2681,-0.268,-0.2718,-0.2688,-0.2688,-0.2688,-0.2688,0,-0.2396,-0.242,-0.2438,-0.2455,-0.2482,-0.2493,-0.2519,-0.2532,-0.255,-0.257,-0.2576,-0.2595,-0.261,-0.2631,-0.2641,-0.2669,-0.2675,-0.2682,-0.2685,-0.2682,-0.2681,-0.2691,-0.269,-0.2689,-0.2689,-0.2689,-0.2688,0,-0.2418,-0.2431,-0.2462,-0.2485,-0.2492,-0.251,-0.2531,-0.2548,-0.2559,-0.2585,-0.2591,-0.261,-0.2635,-0.2649,-0.2681,-0.2688,-0.2719,-0.2721,-0.2712,-0.2713,-0.2729,-0.2727,-0.2775,-0.2782,-0.2746,-0.2747,-0.2747,0,-0.2436,-0.2454,-0.248,-0.2493,-0.2506,-0.2528,-0.2542,-0.2555,-0.257,-0.2596,-0.261,-0.2635,-0.2656,-0.2696,-0.2713,-0.2737,-0.2739,-0.2754,-0.2743,-0.274,-0.274,-0.2739,-0.2742,-0.2756,-0.2757,-0.2757,-0.2757,0,-0.2468,-0.2474,-0.2495,-0.2518,-0.2535,-0.2554,-0.2573,-0.2584,-0.26,-0.2617,-0.2642,-0.2659,-0.2691,-0.2716,-0.2742,-0.2755,-0.2759,-0.276,-0.2766,-0.2763,-0.2758,-0.2762,-0.2718,-0.2759,-0.2759,-0.2759,-0.2759,-0.2759,-0.2489,-0.2505,-0.2526,-0.2549,-0.2565,-0.2582,-0.2599,-0.2613,-0.2634,-0.2661,-0.2667,-0.2694,-0.2716,-0.275,-0.2764,-0.2786,-0.2784,-0.2791,-0.2793,-0.2794,-0.2795,-0.2754,-0.2791,-0.2791,-0.2791,-0.2791,-0.2791,0,-0.2522,-0.2535,-0.2556,-0.2582,-0.2601,-0.2602,-0.2623,-0.2639,-0.2662,-0.2681,-0.2702,-0.2731,-0.2756,-0.2774,-0.28,-0.2814,-0.2816,-0.282,-0.2819,-0.2823,-0.2796,-0.2789,-0.2818,-0.2818,-0.2818,-0.2818,-0.2818,-0.2818,-0.2541,-0.2568,-0.2577,-0.2612,-0.2626,-0.2652,-0.2664,-0.2681,-0.2696,-0.2728,-0.2749,-0.276,-0.278,-0.2806,-0.2829,-0.2834,-0.2844,-0.2847,-0.2852,-0.2827,-0.2824,-0.2822,-0.2815,-0.2849,-0.2849,-0.2878,-0.2878,-0.2878]}]]